Погода в Новобурино

Россия / Челябинская область     55°58′57″N   61°38′57″E
темп.,
°C
ветер,
м/с
пор.,
м/с
влажн.,
%
обл.,
%
осадки,
мм/ч
давл.,
гПа
погр.,
м
28 февраля, вс
вс2823:00−14юв71294100 1.1 1014644
02:00−14юв61294100 0.4 1012568
05:00−15вюв51094100 0.6 1011407
08:00−16вюв5109599 0.1 1010361
11:00−16в5894100 0.3 1010349
14:00−14всв5794100 0.2 1009400
17:00−14всв5994100 0.4 1009427
20:00−16св5895100 0.2 1010330
1 марта, пн
пн123:00−17св489699 0.3 1011260
02:00−18ссв479692 0.1 1012245
05:00−19ссв369795 0.1 1014197
08:00−19с369799 0.1 1015257
11:00−18с359498 0.2 1017299
14:00−15ссв338999 0.0 1017388
17:00−15с1194100 0.1 101738
20:00−18ссз019691 0.0 101720
2 марта, вт
вт223:00−18ююз229786 0.1 101820
02:00−20юз239968 0.0 101720
05:00−19юз339873 0.0 101546
08:00−20зюз349575 0.0 101434
11:00−15зюз478759 0.0 1013321
14:00−13ю479222 0.0 1010341
17:00−11ю589359 0.0 1008398
20:00−13ю51094100 0.0 1006272
3 марта, ср
ср323:00−13ю4893100 0.0 1005251
02:00−12ю3596100 0.1 1004130
05:00−12ю2396100 0.3 100335
08:00−12ю349697 0.3 100282
11:00−9ююз479497 0.4 1001269
14:00−6ююз4694100 0.2 1000308
17:00−4ююз3792100 0.3 999269
20:00−6ююз3394100 0.0 99967
4 марта, чт
чт423:00−7зюз339593 0.1 100033
02:00−10сз349528 0.0 100037
05:00−12зсз339214 0.0 100023
08:00−12з339231 0.0 100026
11:00−6з479354 0.0 1000377
14:00−4зсз478494 0.1 1001843
17:00−6з488381 0.1 1002259
20:00−11зюз458627 0.0 100357